Regional Weather Roundup
Issued by NWS Sioux Falls, SD

Home | Current Version | Previous Version | Graphics & Text | Print | Product List | Glossary Off
Versions: 1 2 3 4 5 6 7 8 9 10 11 12 13 14 15 16 17 18 19 20 21 22 23 24 25 26 27 28 29 30 31 32 33 34 35 36 37 38 39 40 41 42 43 44 45 46 47 48 49 50

753
ASUS43 KFSD 051310
RWRFSD

WEATHER ROUNDUP FOR SE SOUTH DAKOTA/SW MINNESOTA/NW IOWA
NATIONAL WEATHER SERVICE SIOUX FALLS SD
800 AM CDT THU MAY 05 2016

NOTE: "FAIR" INDICATES FEW OR NO CLOUDS BELOW 12,000 FEET WITH NO
SIGNIFICANT WEATHER AND OR OBSTRUCTIONS TO VISIBILITY.


SDZ038>040-050-052>070-051400-
SOUTHEAST SOUTH DAKOTA

CITY           SKY/WX    TMP DP  RH WIND       PRES   REMARKS
BROOKINGS      SUNNY     47  39  74 CALM      30.03S
CHAMBERLAIN    SUNNY     53  47  79 S5        30.03R
HURON          SUNNY     52  43  71 S5        30.01R
MADISON        FAIR      50  37  62 SW7       30.04R
MITCHELL       SUNNY     53  43  68 S3        30.04R
SIOUX FALLS    MOSUNNY   48  43  82 CALM      30.06R
WINNER         FAIR      58  39  49 S7        30.03S
YANKTON        SUNNY     48  45  87 CALM      30.06R
$$

MNZ071-072-080-081-089-090-097-098-051400-
SOUTHWEST MINNESOTA

CITY           SKY/WX    TMP DP  RH WIND       PRES   REMARKS
FAIRMONT       MOSUNNY   46  36  66 S6        30.06R
JACKSON        SUNNY     50  37  62 SE5       30.07R
LUVERNE        SUNNY     43  37  81 CALM      30.07R
MARSHALL       SUNNY     54  38  54 CALM      30.03R
MONTEVIDEO     SUNNY     52  39  62 S3        30.04R
PIPESTONE      SUNNY     50  39  66 SW3       30.04S
REDWOOD FALLS  SUNNY     46  36  68 CALM      30.05R
TRACY          SUNNY     55  35  46 SW9       30.04R
WINDOM         SUNNY     48  41  76 CALM      30.05R
WORTHINGTON    SUNNY     52  38  58 SW7       30.06R
$$

IAZ001>003-012>014-020>022-031-032-NEZ013-014-SDZ071-051400-
NORTHWEST IOWA

CITY           SKY/WX    TMP DP  RH WIND       PRES   REMARKS
CHEROKEE       SUNNY     42  42 100 CALM      30.07R
DENISON        MOSUNNY   41  39  93 CALM      30.06R
ESTHERVILLE    SUNNY     46  39  76 S3        30.07R
LE MARS        SUNNY     43  39  87 CALM      30.08R
ORANGE CITY    MOSUNNY   48  41  76 CALM      30.07R
SHELDON        SUNNY     46  39  76 CALM      30.05S
SIOUX CITY     SUNNY     47  41  80 CALM      30.08R
SPENCER        SUNNY     45  40  82 CALM      30.06R
STORM LAKE     SUNNY     52  37  58 SW5       30.07R
$$

ABBREVIATIONS USED IN REMARKS
   TC - TEMPERATURE IN CELSIUS
  WCI - WIND CHILL INDEX
   HX - HEAT INDEX
  VSB - VISIBILITY





USA.gov is the U.S. government's official web portal to all federal, state and local government web resources and services.